Погода в Руайяне

Франция     45°40′18″N   1°00′37″W
темп.,
°C
ветер,
м/с
пор.,
м/с
влажн.,
%
обл.,
%
осадки,
мм/ч
давл.,
гПа
погр.,
м
6 мая, чт
чт623:00+10ююз2369100 0.1 101763
02:00+10ю3784100 0.3 1014313
05:00+13юз61293100 3.0 1011604
08:00+13зюз71195100 4.4 1011629
11:00+14зюз101592100 4.3 10101029
14:00+13з91495100 6.4 10121049
17:00+14з81290100 0.9 1012985
20:00+13з61191100 1.6 1013776
7 мая, пт
пт723:00+12зюз5996100 1.5 1014444
02:00+12з5995100 3.8 1014455
05:00+12з4893100 0.4 1015318
08:00+12зсз4791100 0.4 1016356
11:00+15зсз3572100 0.1 1017876
14:00+15з4570100 0.1 1018838
17:00+14з3475100 0.0 1018524
20:00+14зюз2375100 0.0 1018481
8 мая, сб
сб823:00+11ю239281 0.0 101836
02:00+11ю349464 0.0 101777
05:00+10ююв3596100 0.0 101590
08:00+11ююв4794100 0.0 1015184
11:00+18ююв45725 0.0 1014545
14:00+22ююв575894 0.0 10121005
17:00+24ю4653100 0.0 10091149
20:00+23юв247089 0.0 1006116
9 мая, вс
вс923:00+21ююв8166083 0.1 1004491
02:00+18юв101871100 0.1 1002479
05:00+16ююв111975100 0.0 1000447
08:00+16ююв1018795 0.0 1000440
11:00+21ю81464100 0.0 10011051
14:00+20юз81460100 0.0 10011141
17:00+17сз4467100 0.0 1002612
20:00+13зюз4795100 2.1 1003475
10 мая, пн
пн1023:00+12ююз4794100 0.6 1005368
02:00+12з71088100 0.7 1005398
05:00+11ююз4892100 2.3 1006301
08:00+12зюз6108595 2.3 1006670
11:00+15зюз676845 0.3 10081208
14:00+16юз676128 0.4 10081406
17:00+15зюз776145 0.3 10081250
20:00+13зюз456846 0.3 1008697